Location: *
(44.3925°N, 5.4708°E)
Time: 01:35:20
(UTC+00:00)

NOSS 3-3 (A) - Pass Details

Date: 18 September 2019
Orbit: 849 x 1363 km, 63.4° (Epoch: 08 October)

Event Time Altitude Azimuth Distance (km) Brightness Sun altitude
Rises 18:08:23 0° 215° (SW) 3,444 7.3 -5.2°
Reaches altitude 10° 18:10:45 10° 215° (SW) 2,543 6.6 -5.6°
Maximum altitude 18:16:39 89° 125° (SE) 953 4.0 -6.7°
Drops below altitude 10° 18:23:17 10° 38° (NE) 2,847 6.2 -7.8°
Sets 18:26:04 0° 38° (NE) 3,884 6.9 -8.3°
